Regional Weather Roundup
Issued by NWS

Home | Current Version | Previous Version | Text Only | Print | Product List | Glossary Off
Versions: 1 2 3 4 5 6 7 8 9 10 11 12 13 14 15 16 17 18 19 20 21 22 23 24 25 26 27 28 29 30 31 32 33 34 35 36 37 38 39 40 41 42 43 44 45 46 47 48 49 50

000
ASUS43 KMPX 010010
RWRMN
WEATHER ROUNDUP FOR MINNESOTA
NATIONAL WEATHER SERVICE TWIN CITIES/CHANHASSEN MN
700 PM CDT WED AUG 31 2016


NOTE: "FAIR" INDICATES FEW OR NO CLOUDS BELOW 12,000 FEET WITH NO
SIGNIFICANT WEATHER AND/OR OBSTRUCTIONS TO VISIBILITY. N/A MEANS
CURRENT SKY AND/OR WEATHER CONDITIONS ARE NOT AVAILABLE.

MNZ060>063-068>070-010100-
   Twin Cities Metro

CITY           SKY/WX    TMP DP  RH WIND       PRES   REMARKS
TWIN CITIES    PTCLDY    76  47  35 NE8       30.15S
6HR MIN TEMP:  76; 6HR MAX TEMP:  80;

ST PAUL        CLEAR     75  50  41 N8        30.15S
CRYSTAL        CLEAR     75  49  39 NE6       30.14S
BLAINE         CLEAR     73  52  46 N7        30.16S
LAKEVILLE      CLEAR     72  54  53 N6        30.15F
EDEN PRAIRIE   CLEAR     76  56  49 NW5       30.14F
6HR MIN TEMP:  76; 6HR MAX TEMP:  80;

LAKEVILLE      CLEAR     72  54  53 N6        30.15F
SOUTH ST PAUL  CLEAR     76  50  40 NE5       30.15S
LAKE ELMO      FAIR      72  55  56 NE3       30.17S
$$
MNZ001>005-007-008-013>017-022>024-027-028-010100-
   Northwest Minnesota

CITY           SKY/WX    TMP DP  RH WIND       PRES   REMARKS
BEMIDJI        CLEAR     67  54  62 N5        30.22S
HALLOCK        SUNNY     72  54  53 NE3       30.22S
ROSEAU         CLEAR     70  57  64 E6        30.24S
WARROAD        CLEAR     66  55  68 E6        30.25S
THIEF RVR FALL SUNNY     68  55  63 NE6       30.23S
CROOKSTON      SUNNY     72  55  56 NE3       30.21S
FOSSTON        CLEAR     70  61  73 NE5       30.22S
DETROIT LAKES  CLEAR     72  54  53 N5        30.22S
MOORHEAD       SUNNY     73  54  49 NE6       30.20S
PARK RAPIDS    CLEAR     72  52  49 NE7       30.21R
MAHNOMEN       FAIR      69  55  62 NE5       30.21S
$$
MNZ006-009>011-018-025>026-010100-
   North Central Minnesota

CITY           SKY/WX    TMP DP  RH WIND       PRES   REMARKS
BAUDETTE       CLEAR     66  54  65 N8        30.23S
FLAG ISLAND    PTCLDY    66  52  59 NE3       30.23S
INTL FALLS     CLEAR     69  51  52 N6        30.21S
6HR MIN TEMP:  67; 6HR MAX TEMP:  72;

WASKISH        PTCLDY    68  54  60 CALM      30.22S
BIG FORK       CLEAR     66  54  63 CALM      30.21F
LONGVILLE      CLEAR     68  55  64 CALM      30.20S
GRAND RAPIDS   CLEAR     67  55  65 N5        30.22S
CRANE LAKE     CLEAR     66  54  63 N2        30.21F
ORR            PTCLDY    66  54  63 CALM      30.18F
COOK           MOCLDY    66  54  63 CALM      30.21S
WALKER         FAIR      67  55  64 N6        30.21R
$$
MNZ012-019>021-037-010100-
   Northeast Minnesota

CITY           SKY/WX    TMP DP  RH WIND       PRES   REMARKS
DULUTH         MOCLDY    66  54  65 E6        30.19S
6HR MIN TEMP:  66; 6HR MAX TEMP:  75;

ELY            MOCLDY    66  50  55 CALM      30.19F
HIBBING        PTCLDY    67  53  61 N6        30.20F
EVELETH        CLEAR     65  52  61 CALM      30.21F
DULUTH HARBOR  PTCLDY    72  61  68 E5        30.17S
TWO HARBORS    CLEAR     70  57  64 SE3       30.17S
SILVER BAY     CLOUDY    66  57  72 CALM      30.17S
GRAND MARAIS     N/A     67  44  43 CALM      30.16S
G MARAIS ARPRT PTCLDY    59  50  72 CALM      30.21S
$$
MNZ029>031-032-039>041-046>048-054>057-064-010100-
   West Central Minnesota

CITY           SKY/WX    TMP DP  RH WIND       PRES   REMARKS
FERGUS FALLS   SUNNY     73  55  53 NE5       30.19S
WHEATON        SUNNY     77  63  61 E3        30.18F
MORRIS         SUNNY     79  57  47 CALM      30.17S
ALEXANDRIA     CLEAR     76  52  43 N7        30.20S
ELBOW LAKE     FAIR      75  56  52 E5        30.19S
WADENA         CLEAR     72  55  56 CALM      30.20R
GLENWOOD       CLEAR     73  57  56 N5        30.20R
APPLETON       SUNNY     77  61  57 E3        30.16F
BENSON         CLEAR     75  55  50 CALM      30.17F
ORTONVILLE     MOSUNNY   77  57  50 CALM      30.17S
MADISON        MOSUNNY   77  59  53 CALM      30.17S
WILLMAR        FAIR      75  61  60 NE3       30.19R
$$
MNZ033>034-036-042>043-049>051-058-059-010100-
   Central Minnesota

CITY           SKY/WX    TMP DP  RH WIND       PRES   REMARKS
ST CLOUD       CLEAR     74  57  55 N3        30.17R
6HR MIN TEMP:  74; 6HR MAX TEMP:  78;

SAUK CENTRE    FAIR      73  56  53 N3        30.19R
PAYNESVILLE    CLEAR     74  53  48 N3        30.18S
AITKIN         CLEAR     72  52  49 N6        30.18S
PINE RIVER     CLEAR     70  57  64 N5        30.23S
BRAINERD       CLEAR     72  54  53 N7        30.19S
STAPLES        CLEAR     72  52  49 NE5       30.20R
LONG PRAIRIE   FAIR      72  54  53 NW5       30.20R
LITTLE FALLS   CLEAR     72  50  46 CALM      30.19R
LITCHFIELD     CLEAR     75  57  53 CALM      30.18S
BUFFALO        CLEAR     74  53  47 N3        30.17S
MAPLE LAKE     CLEAR     74  61  62 N3        30.18S
HUTCHINSON     CLEAR     75  59  57 N6        30.18S
$$
MNZ037-044-045-052-053-010100-
   East Central Minnesota

CITY           SKY/WX    TMP DP  RH WIND       PRES   REMARKS
PRINCETON      CLEAR     73  55  53 N6        30.17S
MORA           CLEAR     70  54  56 CALM      30.18F
CAMBRIDGE      CLEAR     73  57  56 CALM      30.15S
RUSH CITY      CLEAR     71  56  57 CALM      30.17S
MOOSE LAKE     CLEAR     70  54  56 N3        30.16S
HINCKLEY       FAIR      72  55  56 CALM      30.16F
CLOQUET        CLEAR     68  54  60 N3        30.19S
MCGREGOR       CLEAR     70  54  56 N7        30.19S
$$
MNZ071>073-080-081-089-090-097-098-010100-
   Southwest Minnesota

CITY           SKY/WX    TMP DP  RH WIND       PRES   REMARKS
MONTEVIDEO     CLOUDY    75  63  64 CALM      30.19S
GRANITE FALLS  CLOUDY    75  64  67 N5        30.18F
CANBY          PTSUNNY   78  59  51 NE5       30.18F
MARSHALL       PTCLDY    75  60  59 NE5       30.18S
REDWOOD FALLS  CLEAR     75  59  57 NW3       30.16S
OLIVIA         CLEAR     77  61  57 CALM      30.17R
WINDOM         CLEAR     75  57  53 CALM      30.18F
WORTHINGTON    CLEAR     74  60  61 NE6       30.19S
JACKSON        CLEAR     73  59  60 NE5       30.19S
TRACY          CLEAR     77  61  57 CALM      30.18S
SLAYTON        CLEAR     72  61  68 NE3       30.20S
$$
MNZ065>067-074>077-082>085-091>093-010100-
   South Central Minnesota

CITY           SKY/WX    TMP DP  RH WIND       PRES   REMARKS
MANKATO        CLEAR     74  59  59 NE5       30.16F
NEW ULM        CLEAR     75  57  53 CALM      30.16F
ST JAMES       CLEAR     73  61  64 CALM      30.17F
FAIRMONT       CLEAR     73  59  61 N5        30.17F
GLENCOE        CLEAR     76  62  62 CALM      30.16S
FARIBAULT      CLEAR     72  59  64 CALM      30.16F
OWATONNA       CLEAR     72  57  60 NW3       30.16S
WASECA         CLEAR     72  61  68 N3        30.18S
ALBERT LEA     CLEAR     72  57  60 N5        30.16F
$$
MNZ078>079-086>088-094>096-010100-
   Southeast Minnesota

CITY           SKY/WX    TMP DP  RH WIND       PRES   REMARKS
ROCHESTER      CLEAR     71  53  52 N7        30.17S
6HR MIN TEMP:  71; 6HR MAX TEMP:  78;

RED WING       CLEAR     73  54  49 N3        30.14S
STANTON        CLEAR     73  54  49 NE5       30.14F
DODGE CENTER   CLEAR     72  54  53 N3        30.17S
WINONA         CLEAR     73  54  49 N3        30.14S
AUSTIN         CLEAR     72  55  56 N3        30.16S
PRESTON        CLEAR     70  53  53 N3        30.16S
$$
ABBREVIATIONS USED IN REMARKS
   TC - TEMPERATURES IN CELSIUS
  WCI - WIND CHILL INDEX
   HX - HEAT INDEX
  VSB - VISIBILITY
$$




USA.gov is the U.S. government's official web portal to all federal, state and local government web resources and services.